Location: Bavegemberg
(50.9500°N, 3.8833°E)
Time: 13:00:50
(UTC+00:00)

CZ-2C R/B - Pass Details

Date: 23 May 2024
Orbit: 784 x 868 km, 98.3° (Epoch: 18 June)

Event Time Altitude Azimuth Distance (km) Brightness Sun altitude
Exits shadow 02:29:16 - 196° (SSW) 2,390 4.5 -9.4°
Reaches altitude 10° 02:29:25 10° 196° (SSW) 2,338 4.4 -9.4°
Maximum altitude 02:34:10 37° 264° (W) 1,205 3.2 -9.0°
Drops below altitude 10° 02:38:59 10° 331° (NNW) 2,362 5.3 -8.5°
Sets 02:41:30 0° 340° (NNW) 3,303 6.2 -8.2°
